Weather in Chigiri

Russia / Amur Oblast     50°20′20″N   127°30′27″E
temp.,
°C
wind,
m/s
gust,
m/s
humid.,
%
clouds,
%
prec.,
mm/h
press.,
hPa
HPBL,
m
3 march, wed
wed300:00−15sse3592100 0.0 1022121
03:00−15sse3697100 0.2 1019195
06:00−15sse3597100 0.3 1018140
09:00−13s369598 0.4 1016225
12:00−10s468952 0.0 1014455
15:00−7sse478674 0.0 1011573
18:00−9sse479185 0.0 1010128
21:00−10ssw349092 0.0 101074
4 march, thu
thu400:00−12ssw2291100 0.0 100921
03:00−10s1297100 0.7 100859
06:00−10nw2296100 1.8 100959
09:00−14nnw4691100 1.8 1011254
12:00−13n4692100 0.0 1011347
15:00−11n5691100 0.1 1010465
18:00−14n599299 0.1 1012401
21:00−15nnw7129399 0.4 1017698
5 march, fri
fri500:00−18nnw71483100 0.1 1021614
03:00−22nw7167993 0.1 1025623
06:00−25nw6167533 0.0 1028624
09:00−23nw8157117 0.0 1030891
12:00−19nw712700 0.0 10311248
15:00−16nnw8136950 0.0 10311545
18:00−19nnw3481100 0.0 103260
21:00−21wnw448266 0.0 103557
6 march, sat
sat600:00−22wnw46810 0.0 103583
03:00−22w46800 0.0 103686
06:00−23w23770 0.0 103620
09:00−20w36780 0.0 1035285
12:00−14wnw12630 0.0 1033609
15:00−10w35611 0.0 10311097
18:00−15wsw237924 0.0 102923
21:00−18sw338612 0.0 103022
7 march, sun
sun700:00−17s2390100 0.0 102741
03:00−16sse2393100 0.0 102665
06:00−15s2397100 0.6 102496
09:00−13ssw2389100 0.6 1024193
12:00−10n2382100 0.0 1023592
15:00−8n2483100 0.1 1023605
18:00−10nnw3589100 0.1 102491
21:00−14wnw228556 0.1 102720